• In United Kingdom
  • List of Countries
  • For 7 days
  • Water Temperature
  • Satellite Maps
  • Weather Map
  • Weather Widgets
  • user-avatar
    Login

    Hourly Weather Kerns

    Today, 30 May, Tuesday

    Time Temperature Precipitation Wind Pressure Humidity
    00:00 +19°C° 0 mm 5 mps 762 mmHg 82%
    01:00 +19°C° 0 mm 5 mps 762 mmHg 79%
    02:00 +19°C° 0 mm 5 mps 762 mmHg 80%
    03:00 +19°C° 0 mm 5 mps 762 mmHg 80%
    04:00 +19°C° 0 mm 5 mps 761 mmHg 79%
    05:00 +19°C° 0 mm 5 mps 761 mmHg 80%
    06:00 +19°C° 0 mm 5 mps 762 mmHg 82%
    07:00 +20°C° 0 mm 5 mps 762 mmHg 83%
    08:00 +22°C° 0 mm 5 mps 762 mmHg 76%
    09:00 +24°C° 0 mm 6 mps 762 mmHg 70%
    10:00 +28°C° 0 mm 6 mps 762 mmHg 59%
    11:00 +29°C° 0 mm 6 mps 762 mmHg 57%
    12:00 +30°C° 0 mm 6 mps 762 mmHg 54%
    13:00 +30°C° 0 mm 6 mps 761 mmHg 51%
    14:00 +30°C° 0 mm 6 mps 761 mmHg 54%
    15:00 +29°C° 0 mm 6 mps 761 mmHg 56%
    16:00 +28°C° 0 mm 6 mps 761 mmHg 59%
    17:00 +26°C° 0 mm 6 mps 761 mmHg 70%
    18:00 +23°C° 0 mm 6 mps 761 mmHg 80%
    19:00 +21°C° 0 mm 5 mps 762 mmHg 91%
    20:00 +21°C° 0 mm 5 mps 762 mmHg 92%
    21:00 +21°C° 0 mm 5 mps 762 mmHg 93%
    22:00 +21°C° 0 mm 5 mps 763 mmHg 94%
    23:00 +21°C° 0 mm 5 mps 762 mmHg 94%

    Tomorrow, 31 May, Wednesday

    Time Temperature Precipitation Wind Pressure Humidity
    00:00 +21°C° 0 mm 5 mps 762 mmHg 94%
    01:00 +21°C° 0 mm 5 mps 762 mmHg 94%
    02:00 +21°C° 0 mm 5 mps 762 mmHg 95%
    03:00 +21°C° 0 mm 5 mps 761 mmHg 95%
    04:00 +21°C° 0 mm 5 mps 761 mmHg 96%
    05:00 +21°C° 0 mm 5 mps 761 mmHg 95%
    06:00 +21°C° 0 mm 6 mps 761 mmHg 95%
    07:00 +21°C° 0 mm 6 mps 762 mmHg 95%
    08:00 +23°C° 0 mm 6 mps 762 mmHg 87%
    09:00 +26°C° 0 mm 6 mps 762 mmHg 80%
    10:00 +28°C° 0 mm 6 mps 762 mmHg 73%
    11:00 +29°C° 0 mm 6 mps 762 mmHg 69%
    12:00 +30°C° 0 mm 7 mps 761 mmHg 66%
    13:00 +32°C° 0 mm 7 mps 761 mmHg 63%
    14:00 +30°C° 0 mm 7 mps 761 mmHg 66%
    15:00 +29°C° 0 mm 7 mps 760 mmHg 69%
    16:00 +28°C° 0 mm 7 mps 760 mmHg 71%
    17:00 +27°C° 0 mm 7 mps 761 mmHg 73%
    18:00 +26°C° 0 mm 7 mps 761 mmHg 75%
    19:00 +23°C° 0 mm 7 mps 762 mmHg 77%
    20:00 +23°C° 0.1 mm 7 mps 762 mmHg 80%
    21:00 +23°C° 0.1 mm 8 mps 763 mmHg 83%
    22:00 +23°C° 0.1 mm 8 mps 763 mmHg 86%
    23:00 +23°C° 0.1 mm 8 mps 763 mmHg 85%

    Day after tomorrow, 1 June, Thursday

    Time Temperature Precipitation Wind Pressure Humidity
    00:00 +23°C° 0.1 mm 8 mps 763 mmHg 84%
    01:00 +23°C° 0.1 mm 8 mps 763 mmHg 83%
    02:00 +23°C° 0.1 mm 8 mps 762 mmHg 84%
    03:00 +23°C° 0.1 mm 8 mps 762 mmHg 84%
    04:00 +23°C° 0.1 mm 8 mps 762 mmHg 85%
    05:00 +23°C° 0.1 mm 8 mps 762 mmHg 85%
    06:00 +23°C° 0.1 mm 8 mps 763 mmHg 85%
    07:00 +23°C° 0.1 mm 8 mps 763 mmHg 85%
    08:00 +23°C° 0.2 mm 9 mps 763 mmHg 83%
    09:00 +23°C° 0.2 mm 9 mps 764 mmHg 81%
    10:00 +24°C° 0.2 mm 9 mps 764 mmHg 80%
    11:00 +24°C° 0.1 mm 9 mps 763 mmHg 78%
    12:00 +24°C° 0.1 mm 9 mps 763 mmHg 76%
    13:00 +26°C° 0.1 mm 9 mps 762 mmHg 74%
    14:00 +24°C° 0.1 mm 9 mps 762 mmHg 74%
    15:00 +24°C° 0.1 mm 8 mps 762 mmHg 75%
    16:00 +23°C° 0.1 mm 8 mps 762 mmHg 76%
    17:00 +22°C° 0 mm 8 mps 762 mmHg 80%
    18:00 +22°C° 0 mm 8 mps 763 mmHg 83%
    19:00 +21°C° 0 mm 8 mps 763 mmHg 86%
    20:00 +21°C° 0.1 mm 8 mps 763 mmHg 87%
    21:00 +21°C° 0.1 mm 8 mps 764 mmHg 89%
    22:00 +22°C° 0.1 mm 8 mps 764 mmHg 90%
    23:00 +22°C° 0.3 mm 8 mps 764 mmHg 90%

    2 June, Friday

    Time Temperature Precipitation Wind Pressure Humidity
    00:00 +22°C° 0.3 mm 8 mps 763 mmHg 89%
    01:00 +22°C° 0.3 mm 8 mps 763 mmHg 89%
    02:00 +22°C° 0.1 mm 8 mps 763 mmHg 90%
    03:00 +22°C° 0.1 mm 8 mps 762 mmHg 91%
    04:00 +22°C° 0.1 mm 8 mps 762 mmHg 92%
    05:00 +22°C° 0.1 mm 8 mps 763 mmHg 91%
    06:00 +22°C° 0.1 mm 8 mps 763 mmHg 91%
    07:00 +22°C° 0.1 mm 8 mps 763 mmHg 90%
    08:00 +22°C° 0.1 mm 8 mps 764 mmHg 89%
    09:00 +23°C° 0.1 mm 8 mps 764 mmHg 87%
    10:00 +23°C° 0.1 mm 8 mps 765 mmHg 85%
    11:00 +23°C° 0.1 mm 8 mps 764 mmHg 83%
    12:00 +24°C° 0.1 mm 8 mps 764 mmHg 81%
    13:00 +24°C° 0.1 mm 8 mps 763 mmHg 78%
    14:00 +24°C° 0.1 mm 8 mps 763 mmHg 78%
    15:00 +24°C° 0.1 mm 8 mps 763 mmHg 78%
    16:00 +24°C° 0.1 mm 8 mps 762 mmHg 78%
    17:00 +23°C° 0 mm 8 mps 763 mmHg 79%
    18:00 +23°C° 0 mm 8 mps 763 mmHg 80%
    19:00 +23°C° 0 mm 8 mps 764 mmHg 81%
    20:00 +22°C° 0 mm 8 mps 764 mmHg 81%
    21:00 +22°C° 0 mm 8 mps 764 mmHg 81%
    22:00 +22°C° 0 mm 8 mps 765 mmHg 82%
    23:00 +22°C° 0 mm 8 mps 764 mmHg 83%

    3 June, Saturday

    Time Temperature Precipitation Wind Pressure Humidity
    00:00 +22°C° 0 mm 8 mps 764 mmHg 84%
    01:00 +22°C° 0 mm 8 mps 763 mmHg 85%
    02:00 +22°C° 0 mm 8 mps 763 mmHg 86%
    03:00 +22°C° 0 mm 7 mps 763 mmHg 87%
    04:00 +22°C° 0 mm 7 mps 762 mmHg 87%
    05:00 +22°C° 0 mm 7 mps 763 mmHg 88%
    06:00 +21°C° 0 mm 7 mps 763 mmHg 88%
    07:00 +21°C° 0 mm 7 mps 763 mmHg 88%
    08:00 +22°C° 0.1 mm 7 mps 764 mmHg 86%
    09:00 +23°C° 0.1 mm 7 mps 764 mmHg 84%
    10:00 +23°C° 0.1 mm 7 mps 764 mmHg 82%
    11:00 +24°C° 0.1 mm 7 mps 764 mmHg 81%
    12:00 +24°C° 0.1 mm 7 mps 763 mmHg 80%
    13:00 +24°C° 0.1 mm 7 mps 763 mmHg 79%
    14:00 +24°C° 0.1 mm 7 mps 762 mmHg 79%
    15:00 +24°C° 0.1 mm 7 mps 762 mmHg 79%
    16:00 +24°C° 0.1 mm 7 mps 762 mmHg 78%
    17:00 +23°C° 0.1 mm 6 mps 762 mmHg 82%
    18:00 +22°C° 0.1 mm 6 mps 763 mmHg 86%
    19:00 +22°C° 0.1 mm 6 mps 763 mmHg 89%
    20:00 +22°C° 0.1 mm 6 mps 763 mmHg 90%
    21:00 +22°C° 0.1 mm 6 mps 764 mmHg 90%
    22:00 +21°C° 0.1 mm 6 mps 764 mmHg 90%
    23:00 +21°C° 0.2 mm 6 mps 763 mmHg 92%

    4 June, Sunday

    Time Temperature Precipitation Wind Pressure Humidity
    00:00 +21°C° 0.2 mm 6 mps 763 mmHg 93%
    01:00 +21°C° 0.2 mm 6 mps 763 mmHg 95%
    02:00 +21°C° 0.2 mm 6 mps 762 mmHg 95%
    03:00 +21°C° 0.2 mm 6 mps 762 mmHg 94%
    04:00 +21°C° 0.2 mm 6 mps 762 mmHg 94%
    05:00 +21°C° 0.2 mm 6 mps 762 mmHg 94%
    06:00 +21°C° 0.2 mm 6 mps 762 mmHg 93%
    07:00 +21°C° 0.2 mm 6 mps 763 mmHg 93%
    08:00 +22°C° 0.2 mm 6 mps 763 mmHg 88%
    09:00 +23°C° 0.2 mm 6 mps 763 mmHg 83%
    10:00 +24°C° 0.2 mm 6 mps 763 mmHg 78%
    11:00 +24°C° 0.2 mm 6 mps 762 mmHg 76%
    12:00 +26°C° 0.2 mm 6 mps 762 mmHg 73%
    13:00 +26°C° 0.2 mm 6 mps 761 mmHg 71%
    14:00 +26°C° 0.2 mm 6 mps 761 mmHg 73%
    15:00 +24°C° 0.2 mm 6 mps 761 mmHg 76%
    16:00 +24°C° 0.2 mm 6 mps 761 mmHg 78%
    17:00 +23°C° 0.2 mm 6 mps 761 mmHg 82%
    18:00 +23°C° 0.2 mm 6 mps 762 mmHg 85%
    19:00 +22°C° 0.2 mm 6 mps 762 mmHg 89%
    20:00 +22°C° 0.3 mm 5 mps 762 mmHg 91%
    21:00 +21°C° 0.3 mm 5 mps 762 mmHg 93%
    22:00 +21°C° 0.3 mm 5 mps 762 mmHg 95%
    23:00 +21°C° 0.4 mm 5 mps 762 mmHg 95%
    Show more